New Ulm, MN

2:50 PM CST on December 15, 2019 (GMT -0600)
New Ulm Municipal

Weather History for KULM - October, 2019

Change the Weather History Date:

Monday, October 14, 2019

  Actual Average Record
Temperature  
Mean Temperature 38 °F -  
Max Temperature 51 °F 63 °F 86 °F (1958)
Min Temperature 26 °F 39 °F 24 °F (2006)
Degree Days  
Heating Degree Days 26    
Moisture  
Dew Point 30 °F    
Average Humidity 74    
Maximum Humidity 93    
Minimum Humidity 50    
Precipitation  
Precipitation 0.00 in - - ()
Sea Level Pressure  
Sea Level Pressure 29.95 in    
Wind  
Wind Speed 5 mph ()    
Max Wind Speed 10 mph    
Max Gust Speed -    
Visibility 10.0 miles    
Events      
Averages and records for this station are not official NWS values.
T = Trace of Precipitation, MM = Missing Value Source: Averaged Metar Reports

Daily Weather History Graph

Daily Weather History Graph

Search for Another Location

Airport or City:

Astronomy

Oct. 14, 2019 Rise Set
Actual Time 7:31 AM CDT 6:35 PM CDT
Civil Twilight 7:02 AM CDT 7:05 PM CDT
Nautical Twilight 6:28 AM CDT 7:38 PM CDT
Astronomical Twilight 5:54 AM CDT 8:12 PM CDT
Moon 7:25 PM CDT (10/14) 8:03 AM CDT (10/14)
Length of Visible Light 12h 02m
Length of Day
11h 04m
Full, 99% of the Moon is Illuminated
Oct 14
Full
Oct 21
Last Quarter
Oct 27
New
Nov 4
First Quarter
Nov 12
Full

Hourly Weather History & Observations

Time (CDT) Temp. Windchill Dew Point Humidity Pressure Visibility Wind Dir Wind Speed Gust Speed Precip Events Conditions
12:15 AM 33.8 °F 28.6 °F 30.2 °F 87% 29.97 in 10.0 mi WNW 5.8 mph - N/A   Scattered Clouds
12:16 AM 33.8 °F 28.6 °F 30.2 °F 87% 29.97 in 10.0 mi WNW 5.8 mph - N/A   Scattered Clouds
12:35 AM 35.6 °F 29.9 °F 30.2 °F 81% 29.97 in 10.0 mi West 6.9 mph - N/A   Clear
12:55 AM 33.8 °F 28.6 °F 28.4 °F 81% 29.97 in 10.0 mi West 5.8 mph - N/A   Clear
12:56 AM 33.8 °F 28.6 °F 28.4 °F 81% 29.97 in 10.0 mi West 5.8 mph - N/A   Clear
1:15 AM 30.2 °F 24.3 °F 28.4 °F 93% 29.97 in 10.0 mi WSW 5.8 mph - N/A   Clear
1:16 AM 30.2 °F 24.3 °F 28.4 °F 93% 29.97 in 10.0 mi WSW 5.8 mph - N/A   Clear
1:35 AM 30.2 °F 25.4 °F 28.4 °F 93% 29.97 in 10.0 mi WSW 4.6 mph - N/A   Clear
1:55 AM 28.4 °F 22.2 °F 26.6 °F 93% 29.98 in 10.0 mi WSW 5.8 mph - N/A   Clear
1:56 AM 28.4 °F 22.2 °F 26.6 °F 93% 29.98 in 10.0 mi WSW 5.8 mph - N/A   Clear
2:15 AM 28.4 °F 22.2 °F 26.6 °F 93% 29.99 in 10.0 mi WSW 5.8 mph - N/A   Clear
2:16 AM 28.4 °F 22.2 °F 26.6 °F 93% 29.99 in 10.0 mi WSW 5.8 mph - N/A   Clear
2:35 AM 28.4 °F 23.3 °F 26.6 °F 93% 29.99 in 10.0 mi West 4.6 mph - N/A   Clear
2:55 AM 28.4 °F 22.2 °F 26.6 °F 93% 29.99 in 10.0 mi West 5.8 mph - N/A   Clear
2:56 AM 28.4 °F 22.2 °F 26.6 °F 93% 29.99 in 10.0 mi West 5.8 mph - N/A   Clear
3:15 AM 28.4 °F 23.3 °F 26.6 °F 93% 29.99 in 10.0 mi West 4.6 mph - N/A   Clear
3:16 AM 28.4 °F 23.3 °F 26.6 °F 93% 29.99 in 10.0 mi West 4.6 mph - N/A   Clear
3:35 AM 28.4 °F 23.3 °F 26.6 °F 93% 29.99 in 10.0 mi West 4.6 mph - N/A   Clear
3:55 AM 26.6 °F 21.2 °F 24.8 °F 93% 29.99 in 10.0 mi WSW 4.6 mph - N/A   Clear
3:56 AM 26.6 °F 21.2 °F 24.8 °F 93% 30.00 in 10.0 mi West 4.6 mph - N/A   Clear
4:15 AM 26.6 °F 22.6 °F 24.8 °F 93% 30.00 in 10.0 mi West 3.5 mph - N/A   Clear
4:16 AM 26.6 °F 22.6 °F 24.8 °F 93% 30.00 in 10.0 mi West 3.5 mph - N/A   Clear
4:35 AM 26.6 °F - 24.8 °F 93% 30.00 in 10.0 mi Calm Calm - N/A   Clear
4:55 AM 26.6 °F - 24.8 °F 93% 30.00 in 10.0 mi Calm Calm - N/A   Clear
5:15 AM 26.6 °F - 24.8 °F 93% 30.00 in 10.0 mi Calm Calm - N/A   Clear
5:16 AM 26.6 °F - 24.8 °F 93% 30.00 in 10.0 mi Calm Calm - N/A   Clear
5:35 AM 26.6 °F 22.6 °F 24.8 °F 93% 30.01 in 10.0 mi WSW 3.5 mph - N/A   Clear
5:36 AM 26.6 °F 22.6 °F 24.8 °F 93% 30.01 in 10.0 mi WSW 3.5 mph - N/A   Clear
5:55 AM 26.6 °F 22.6 °F 24.8 °F 93% 30.01 in 10.0 mi West 3.5 mph - N/A   Clear
6:15 AM 26.6 °F 22.6 °F 24.8 °F 93% 30.01 in 10.0 mi WSW 3.5 mph - N/A   Clear
6:16 AM 26.6 °F 21.2 °F 24.8 °F 93% 30.01 in 10.0 mi WSW 4.6 mph - N/A   Clear
6:35 AM 26.6 °F 21.2 °F 24.8 °F 93% 30.02 in 10.0 mi SW 4.6 mph - N/A   Clear
6:55 AM 26.6 °F 21.2 °F 24.8 °F 93% 30.02 in 10.0 mi WSW 4.6 mph - N/A   Clear
6:56 AM 26.6 °F 21.2 °F 24.8 °F 93% 30.02 in 10.0 mi SW 4.6 mph - N/A   Clear
7:15 AM 26.6 °F 22.6 °F 24.8 °F 93% 30.02 in 10.0 mi WSW 3.5 mph - N/A   Clear
7:35 AM 26.6 °F - 24.8 °F 93% 30.01 in 10.0 mi Calm Calm - N/A   Clear
7:55 AM 26.6 °F - 24.8 °F 93% 30.01 in 10.0 mi Calm Calm - N/A   Clear
8:15 AM 26.6 °F - 24.8 °F 93% 30.01 in 10.0 mi Calm Calm - N/A   Clear
8:35 AM 28.4 °F - 26.6 °F 93% 30.02 in 10.0 mi Calm Calm - N/A   Clear
8:55 AM 30.2 °F - 28.4 °F 93% 30.02 in 10.0 mi Calm Calm - N/A   Clear
9:15 AM 32.0 °F - 28.4 °F 87% 30.02 in 10.0 mi Calm Calm - N/A   Clear
9:35 AM 35.6 °F - 30.2 °F 81% 30.02 in 10.0 mi Calm Calm - N/A   Clear
9:36 AM 35.6 °F - 30.2 °F 81% 30.02 in 10.0 mi Calm Calm - N/A   Clear
9:55 AM 37.4 °F - 30.2 °F 75% 30.02 in 10.0 mi Calm Calm - N/A   Clear
10:15 AM 37.4 °F - 30.2 °F 75% 30.02 in 10.0 mi Calm Calm - N/A   Clear
10:35 AM 39.2 °F 37.0 °F 30.2 °F 70% 30.03 in 10.0 mi SSW 3.5 mph - N/A   Clear
10:36 AM 39.2 °F 37.0 °F 30.2 °F 70% 30.03 in 10.0 mi South 3.5 mph - N/A   Clear
10:55 AM 41.0 °F 39.0 °F 30.2 °F 65% 30.02 in 10.0 mi South 3.5 mph - N/A   Clear
11:15 AM 42.8 °F 38.6 °F 30.2 °F 61% 30.02 in 10.0 mi South 6.9 mph - N/A   Clear
11:16 AM 42.8 °F 38.6 °F 30.2 °F 61% 30.02 in 10.0 mi South 6.9 mph - N/A   Clear
11:35 AM 42.8 °F 38.6 °F 30.2 °F 61% 30.02 in 10.0 mi South 6.9 mph - N/A   Clear
11:55 AM 42.8 °F 37.5 °F 30.2 °F 61% 30.02 in 10.0 mi South 9.2 mph - N/A   Clear
11:56 AM 42.8 °F 38.0 °F 30.2 °F 61% 30.02 in 10.0 mi SSW 8.1 mph - N/A   Clear
12:15 PM 44.6 °F 40.7 °F 30.2 °F 57% 30.01 in 10.0 mi SSE 6.9 mph - N/A   Clear
12:35 PM 44.6 °F 40.2 °F 30.2 °F 57% 30.00 in 10.0 mi South 8.1 mph - N/A   Clear
12:36 PM 44.6 °F 40.2 °F 30.2 °F 57% 30.00 in 10.0 mi SSW 8.1 mph - N/A   Clear
12:55 PM 44.6 °F 42.2 °F 30.2 °F 57% 29.99 in 10.0 mi South 4.6 mph - N/A   Clear
1:15 PM 46.4 °F 42.9 °F 32.0 °F 57% 29.98 in 10.0 mi South 6.9 mph - N/A   Clear
1:16 PM 46.4 °F 41.5 °F 30.2 °F 53% 29.98 in 10.0 mi South 10.4 mph - N/A   Clear
1:35 PM 46.4 °F 41.9 °F 32.0 °F 57% 29.97 in 10.0 mi South 9.2 mph - N/A   Clear
1:36 PM 46.4 °F 41.5 °F 32.0 °F 57% 29.97 in 10.0 mi South 10.4 mph - N/A   Clear
1:55 PM 48.2 °F - 32.0 °F 54% 29.97 in 10.0 mi SSW 5.8 mph - N/A   Clear
2:15 PM 48.2 °F - 32.0 °F 54% 29.95 in 10.0 mi South 5.8 mph - N/A   Clear
2:35 PM 48.2 °F - 32.0 °F 54% 29.94 in 10.0 mi SSE 6.9 mph - N/A   Clear
2:55 PM 50.0 °F - 33.8 °F 54% 29.94 in 10.0 mi SSE 5.8 mph - N/A   Clear
3:15 PM 51.8 °F - 33.8 °F 50% 29.93 in 10.0 mi SSE 6.9 mph - N/A   Clear
3:35 PM 51.8 °F - 33.8 °F 50% 29.92 in 10.0 mi SSE 9.2 mph - N/A   Clear
3:55 PM 51.8 °F - 33.8 °F 50% 29.91 in 10.0 mi SSE 5.8 mph - N/A   Clear
4:15 PM 51.8 °F - 33.8 °F 50% 29.89 in 10.0 mi SSE 9.2 mph - N/A   Clear
4:16 PM 51.8 °F - 33.8 °F 50% 29.89 in 10.0 mi SSE 8.1 mph - N/A   Clear
4:35 PM 51.8 °F - 33.8 °F 50% 29.89 in 10.0 mi SE 8.1 mph - N/A   Clear
4:55 PM 51.8 °F - 33.8 °F 50% 29.88 in 10.0 mi SE 8.1 mph - N/A   Clear
4:56 PM 51.8 °F - 33.8 °F 50% 29.88 in 10.0 mi SE 6.9 mph - N/A   Clear
5:15 PM 51.8 °F - 33.8 °F 50% 29.86 in 10.0 mi ESE 9.2 mph - N/A   Clear
5:35 PM 50.0 °F - 33.8 °F 54% 29.86 in 10.0 mi ESE 8.1 mph - N/A   Clear
5:36 PM 50.0 °F - 33.8 °F 54% 29.86 in 10.0 mi ESE 8.1 mph - N/A   Clear
5:55 PM 50.0 °F - 33.8 °F 54% 29.86 in 10.0 mi ESE 6.9 mph - N/A   Clear
6:15 PM 48.2 °F - 33.8 °F 58% 29.85 in 10.0 mi East 6.9 mph - N/A   Clear
6:16 PM 48.2 °F - 33.8 °F 58% 29.85 in 10.0 mi East 5.8 mph - N/A   Clear
6:35 PM 48.2 °F - 33.8 °F 58% 29.85 in 10.0 mi East 8.1 mph - N/A   Clear
6:55 PM 48.2 °F - 33.8 °F 58% 29.85 in 10.0 mi East 6.9 mph - N/A   Clear
7:16 PM 46.4 °F 44.3 °F 33.8 °F 62% 29.86 in 10.0 mi ENE 4.6 mph - N/A   Clear
7:35 PM 46.4 °F 45.2 °F 33.8 °F 62% 29.88 in 10.0 mi ENE 3.5 mph - N/A   Clear
7:55 PM 46.4 °F 44.3 °F 33.8 °F 62% 29.88 in 10.0 mi ENE 4.6 mph - N/A   Clear
7:56 PM 46.4 °F 44.3 °F 33.8 °F 62% 29.88 in 10.0 mi ENE 4.6 mph - N/A   Clear
8:15 PM 46.4 °F 43.5 °F 33.8 °F 62% 29.88 in 10.0 mi ENE 5.8 mph - N/A   Clear
8:35 PM 44.6 °F 40.7 °F 33.8 °F 66% 29.87 in 10.0 mi East 6.9 mph - N/A   Clear
8:36 PM 44.6 °F 40.7 °F 33.8 °F 66% 29.87 in 10.0 mi East 6.9 mph - N/A   Clear
8:55 PM 44.6 °F 40.7 °F 33.8 °F 66% 29.87 in 10.0 mi East 6.9 mph - N/A   Clear
9:15 PM 44.6 °F 40.7 °F 33.8 °F 66% 29.87 in 10.0 mi East 6.9 mph - N/A   Clear
9:35 PM 44.6 °F 40.2 °F 33.8 °F 66% 29.86 in 10.0 mi East 8.1 mph - N/A   Clear
9:36 PM 44.6 °F 40.2 °F 33.8 °F 66% 29.86 in 10.0 mi East 8.1 mph - N/A   Clear
9:55 PM 42.8 °F 38.0 °F 35.6 °F 76% 29.86 in 10.0 mi East 8.1 mph - N/A   Clear
10:15 PM 42.8 °F 38.0 °F 35.6 °F 76% 29.85 in 10.0 mi East 8.1 mph - N/A   Clear
10:35 PM 42.8 °F 38.0 °F 35.6 °F 76% 29.85 in 10.0 mi East 8.1 mph - N/A   Clear
10:55 PM 44.6 °F 40.2 °F 35.6 °F 71% 29.84 in 10.0 mi East 8.1 mph - N/A   Clear
11:15 PM 42.8 °F 38.0 °F 35.6 °F 76% 29.83 in 10.0 mi East 8.1 mph - N/A   Clear
11:16 PM 42.8 °F 38.0 °F 35.6 °F 76% 29.83 in 10.0 mi East 8.1 mph - N/A   Clear
11:35 PM 44.6 °F 40.2 °F 35.6 °F 71% 29.82 in 10.0 mi East 8.1 mph - N/A   Scattered Clouds
11:55 PM 44.6 °F 40.7 °F 35.6 °F 71% 29.81 in 10.0 mi East 6.9 mph - N/A   Mostly Cloudy
11:56 PM 44.6 °F 40.7 °F 35.6 °F 71% 29.81 in 10.0 mi East 6.9 mph - N/A   Mostly Cloudy